Terminal Aerodrome Forecast
Issued by NWS

Home | Current Version | Previous Version | Text Only | Print | Product List | Glossary On
Versions: 1 2 3 4 5 6 7 8 9 10 11 12 13 14 15 16 17 18 19 20
000
FTUS46 KSEW 182100 AAA
TAFOLM
TAF AMD
KOLM 182103Z 1821/1918 22005KT P6SM BKN030 BKN060
     FM190700 20004KT P6SM BKN015 OVC030
     FM191200 20003KT 4SM BR OVC008=

USA.gov is the U.S. government's official web portal to all federal, state and local government web resources and services.